Location: Unspecified
(47.9110°N, 14.3980°E)
Time: 03:45:45
(UTC+00:00)

Cosmos 1782 - Pass Details

Date: 06 August 2020
Orbit: 538 x 550 km, 82.5° (Epoch: 19 September)

Event Time Altitude Azimuth Distance (km) Brightness Sun altitude
Rises 19:02:19 0° 350° (N) 2,723 7.1 -5.6°
Reaches altitude 10° 19:04:29 10° 350° (N) 1,827 6.2 -5.9°
Maximum altitude 19:08:31 86° 260° (W) 556 2.9 -6.5°
Drops below altitude 10° 19:12:31 10° 174° (S) 1,818 5.1 -7.0°
Sets 19:14:40 0° 174° (S) 2,708 6.0 -7.3°
